RH
10 10 10 9 10 9 5 4 5 8 12 30 39 43 47 51 50 44 44 47 46 48 45 49 50 47 46 43 51 61 49 41 42 44 52 54 54 63 70 74 78 79 92 81 91
10 10 9 9 9 9 8 6 4 5 8 16 35 41 44 50 49 44 44 44 42 42 45 56 68 49 57 44 52 61 38 38 41 40 45 50 53 63 71 67 84 87 98 88 95
13 11 10 8 8 8 8 8 7 4 6 8 24 38 42 47 47 33 42 40 40 42 62 79 57 53 60 55 44 48 35 40 39 40 44 48 53 58 61 52 66 78 92 99 98
14 13 11 10 8 7 8 8 7 7 4 6 9 31 39 44 31 35 41 40 40 46 56 57 60 65 54 47 43 41 40 44 43 47 45 49 53 54 58 57 58 79 82 91 83
13 14 13 12 10 8 7 7 7 7 7 4 7 14 35 41 26 38 41 40 40 52 79 72 70 58 63 45 45 44 40 45 46 45 46 52 55 57 62 63 67 81 42 50 97
12 12 12 12 12 11 9 7 7 6 7 7 4 7 23 32 26 39 43 42 43 55 74 74 66 65 58 52 57 46 46 43 44 47 49 52 52 60 69 69 62 73 73 75 93
13 12 11 11 11 11 11 10 8 7 6 7 7 4 10 21 23 38 42 42 44 54 70 72 61 68 54 52 55 49 44 43 47 49 52 52 50 51 66 70 68 61 84 89 91
14 14 12 11 10 10 10 10 10 9 7 6 7 7 10 12 19 35 39 43 40 50 66 73 46 62 59 57 51 47 43 42 46 50 53 53 52 53 61 67 76 79 82 86 90
13 13 14 13 11 11 9 9 9 9 9 8 7 8 14 5 10 25 36 42 40 45 53 48 48 65 58 52 50 43 52 43 47 49 50 51 48 49 56 63 65 72 80 80 74
15 14 13 13 13 12 11 10 9 8 8 9 10 9 9 8 5 12 32 39 42 52 53 48 58 52 46 48 52 50 43 43 44 50 48 47 45 43 47 55 58 63 72 79 82
17 15 14 13 13 13 12 12 13 11 9 10 14 12 16 16 8 5 23 40 49 50 48 51 46 40 44 49 47 55 42 40 46 45 50 46 44 42 42 46 54 56 64 74 78
17 17 16 15 14 13 14 14 13 20 19 10 9 12 20 13 11 20 17 39 43 39 41 39 42 37 49 46 45 44 42 36 40 46 47 41 40 38 38 41 44 50 54 66 77
15 17 17 16 16 14 14 14 13 16 15 19 11 9 10 10 16 17 18 31 32 32 31 29 33 35 45 44 43 38 40 41 39 44 44 49 36 37 36 38 40 44 48 55 69
14 14 16 15 15 16 14 14 13 16 22 17 17 14 14 10 16 14 25 26 27 27 26 25 28 32 38 35 38 34 48 39 40 41 34 43 29 27 30 33 36 40 44 48 59
15 14 14 14 14 16 15 14 13 17 18 18 22 21 16 14 12 15 22 24 24 26 24 23 27 31 33 31 35 37 44 38 36 38 30 26 30 26 31 27 30 34 37 41 48
14 15 14 12 13 15 16 14 15 26 16 19 23 21 19 16 15 15 15 21 24 27 24 23 24 26 30 30 37 33 41 35 32 30 25 26 29 22 35 29 28 30 40 43 45
15 14 14 12 12 15 16 12 27 21 15 17 21 20 18 15 13 16 16 19 25 27 26 24 27 31 28 27 30 34 33 28 28 29 27 35 26 23 27 26 29 30 37 46 47
17 16 13 12 11 14 15 27 23 17 16 16 18 19 17 14 13 17 15 14 19 22 21 24 24 26 29 29 27 32 30 24 35 38 33 32 22 31 25 25 26 28 34 42 47
10 15 16 12 10 12 14 27 22 18 14 16 19 19 17 14 14 15 15 13 20 17 20 21 21 18 28 30 28 28 28 25 28 22 17 21 24 28 24 24 24 23 29 37 47
8 11 16 13 9 11 27 24 20 20 18 18 17 17 16 15 14 13 14 14 13 14 16 15 18 18 23 29 29 30 38 24 24 24 25 23 27 21 25 22 21 22 21 29 44
8 13 13 16 9 10 29 25 23 23 24 18 17 16 16 16 16 14 13 13 13 12 13 14 11 14 17 25 26 29 31 32 30 35 36 26 27 34 26 20 20 19 21 23 33
8 32 32 15 10 22 24 24 22 22 24 21 19 17 18 17 17 16 14 12 13 12 13 14 11 11 12 15 22 23 26 24 23 21 18 16 18 19 20 17 16 17 18 24 31
18 45 40 18 25 19 19 21 23 25 23 21 18 17 18 19 18 17 14 12 12 10 12 12 12 10 12 18 21 22 20 22 21 19 20 22 33 28 21 17 16 16 22 28 32
12 43 26 24 18 26 17 19 22 25 23 22 20 19 21 21 18 17 14 13 13 11 10 11 10 9 10 13 17 19 20 22 23 21 20 19 24 18 21 15 15 15 19 24 36
13 46 46 36 27 31 25 19 24 26 25 24 25 23 20 21 19 20 16 16 16 13 15 12 11 10 10 12 13 12 15 16 18 19 19 19 20 21 22 17 17 16 16 26 33
69 55 65 41 29 26 26 24 20 22 24 24 27 23 21 20 20 19 18 18 18 16 16 14 11 11 12 11 11 11 10 11 12 14 17 18 19 19 27 21 17 13 15 15 23
44 26 24 45 41 31 24 25 23 22 23 24 22 24 20 21 24 26 21 19 17 19 17 16 12 13 15 15 15 13 12 10 10 11 11 12 13 13 14 17 15 15 15 16 26
Wind_Speed
7 8 8 7 5 4 4 6 8 11 12 12 10 9 8 7 6 7 7 8 7 7 9 8 8 9 10 15 11 5 6 9 9 8 9 8 7 5 9 8 4 4 4 9 18
8 9 10 9 8 7 5 5 7 10 12 13 12 10 9 8 7 6 7 9 7 6 8 8 1 5 3 7 2 3 4 8 8 8 9 8 5 5 6 5 2 5 10 14 18
9 10 11 11 10 9 8 7 6 8 11 13 14 12 11 9 6 6 8 8 7 6 6 5 6 6 4 5 2 5 9 7 5 7 7 6 5 5 3 5 2 7 13 16 18
10 10 11 12 12 12 11 10 9 7 10 13 14 14 13 12 4 10 10 9 8 4 7 9 9 2 5 6 4 4 6 4 5 7 7 5 4 4 5 6 3 11 12 13 14
10 11 12 13 13 13 13 12 12 10 9 12 14 16 16 14 7 11 11 10 7 3 11 5 2 5 3 6 5 3 4 3 5 6 5 4 3 2 3 6 8 13 6 9 14
10 11 12 13 14 13 14 14 13 13 11 11 14 17 18 15 21 10 12 11 9 12 8 4 4 5 4 5 2 4 2 3 4 5 3 2 1 2 1 5 6 9 10 10 15
11 12 12 13 14 14 14 15 15 15 15 14 13 17 21 14 18 16 15 12 11 11 8 7 4 3 4 3 4 2 5 4 4 3 1 3 3 1 2 4 3 3 9 12 13
12 13 13 13 14 14 14 15 15 16 17 17 16 15 14 29 20 21 15 16 14 14 12 10 6 3 5 5 3 6 4 4 4 3 5 3 2 2 5 7 6 9 10 12 13
13 13 13 14 14 14 14 14 14 16 17 18 18 18 12 18 24 21 20 17 15 14 13 12 8 5 7 5 10 7 6 3 4 4 4 3 2 1 6 7 8 10 12 13 10
15 14 13 14 15 14 15 14 14 15 16 18 20 16 20 17 21 26 22 19 16 13 12 12 8 9 8 11 8 9 3 3 3 1 4 6 9 8 9 9 11 13 14 16 16
16 16 15 14 14 14 14 13 11 13 18 16 10 17 7 17 23 24 24 20 18 16 16 15 14 16 13 7 9 9 6 7 4 4 7 8 10 11 10 13 13 15 17 18 19
16 17 16 16 16 14 15 16 21 19 11 21 22 22 17 15 18 22 26 23 22 21 18 18 21 13 9 15 9 9 9 8 6 8 7 9 15 14 14 15 16 17 19 22 21
15 16 16 16 17 16 16 18 15 17 15 13 21 24 20 25 17 23 28 26 22 22 22 23 17 16 9 13 11 12 11 6 9 7 13 10 19 13 10 11 13 17 19 22 24
14 15 16 16 17 17 17 16 15 12 7 16 19 23 25 17 20 19 27 27 22 23 22 23 18 16 12 17 15 14 11 7 10 10 9 5 16 10 6 5 8 8 14 19 25
13 14 15 16 15 18 18 16 14 10 6 13 15 15 20 26 9 28 25 29 28 21 22 24 22 18 18 20 17 8 7 7 9 12 15 15 10 1 6 6 2 5 7 15 20
12 14 15 16 16 17 18 16 15 8 13 12 13 18 22 26 18 15 27 30 25 23 23 23 19 22 18 18 15 17 8 12 13 14 17 9 9 8 8 6 4 6 6 3 15
13 14 15 16 18 18 19 19 10 16 10 13 12 17 24 25 25 22 28 33 34 30 29 24 22 18 18 24 20 16 17 22 16 14 4 10 8 13 8 6 6 5 5 3 6
14 15 15 15 17 20 23 19 15 11 19 7 11 17 23 23 29 23 25 33 34 29 25 27 25 23 18 24 24 21 22 23 3 11 10 10 6 6 3 4 3 5 5 4 5
13 15 14 15 18 23 27 25 19 14 13 13 12 17 21 25 21 26 27 32 33 32 29 26 28 25 24 19 22 22 25 20 19 21 12 9 3 14 6 6 3 6 6 7 4
12 13 16 15 19 25 28 29 22 13 10 14 18 16 20 24 25 30 28 27 31 33 28 19 19 19 20 20 23 19 8 16 15 10 12 9 10 3 13 5 3 7 8 7 7
11 6 13 17 19 28 31 26 19 12 14 12 17 14 20 21 25 25 27 21 27 32 32 28 16 19 21 26 24 21 21 17 6 14 3 13 2 3 2 1 5 8 9 7 7
11 7 14 18 24 25 28 23 20 17 15 11 11 17 15 19 21 25 25 27 16 30 35 32 19 22 28 21 21 26 22 24 24 21 18 20 11 4 5 3 7 8 10 7 5
11 14 18 19 18 21 21 25 24 20 16 15 13 14 16 17 17 20 20 20 14 26 33 28 30 24 21 20 22 24 27 29 25 26 25 13 9 12 3 5 7 9 9 8 7
15 9 14 22 23 16 21 23 26 24 19 18 14 12 12 14 18 16 17 19 19 20 26 28 26 28 23 23 20 21 23 25 27 25 21 21 20 7 8 5 6 10 11 10 8
17 11 14 12 22 20 18 20 22 25 23 21 19 16 14 15 18 15 17 17 18 21 20 26 28 25 24 20 13 18 20 20 25 26 28 25 18 15 12 6 9 8 9 11 9
12 12 13 13 11 21 21 20 20 23 22 27 21 18 17 17 17 16 19 18 18 21 22 24 26 23 21 21 20 22 20 19 21 22 22 24 26 17 26 13 10 8 10 12 12
20 19 21 11 16 17 22 20 21 18 23 21 23 21 20 20 12 11 10 17 15 20 21 20 23 21 17 18 21 24 23 19 19 19 19 21 22 19 19 12 12 14 15 17 13
Wind_Direction
219 222 218 210 204 183 199 200 194 187 195 192 186 176 165 164 152 151 148 139 125 106 76 84 114 101 103 108 119 95 172 106 98 121 119 115 93 81 86 83 95 95 154 213 167
224 225 227 218 217 202 203 207 197 188 196 198 192 185 173 168 161 165 170 159 142 118 89 90 68 145 88 125 40 340 138 115 91 93 124 121 87 69 90 18 26 115 147 169 169
225 225 229 225 221 218 205 215 207 193 189 202 196 191 181 171 156 220 181 165 151 144 112 150 119 141 138 174 155 41 114 103 120 112 114 117 90 80 40 45 306 173 158 163 178
229 225 227 227 223 223 215 211 217 205 190 195 201 193 188 168 142 207 186 168 159 161 124 135 120 79 157 146 144 82 116 116 107 113 115 118 117 76 56 29 108 169 166 168 181
228 229 225 229 224 222 222 214 219 215 202 194 200 199 192 185 234 196 189 170 166 162 147 170 152 192 194 145 134 97 137 127 138 128 131 114 88 78 55 58 103 149 164 171 176
229 228 227 228 228 222 223 219 215 222 214 202 198 202 199 193 225 203 191 176 165 143 159 162 209 176 184 172 252 158 167 134 162 163 178 152 315 61 225 110 76 134 159 170 171
233 231 228 227 230 227 221 223 218 217 222 215 202 203 206 209 221 213 196 186 175 163 184 221 182 204 192 207 226 194 171 150 165 192 200 188 251 49 162 159 136 115 164 179 179
234 232 231 230 228 228 226 220 222 217 219 222 217 205 192 221 213 208 200 195 191 190 180 221 192 190 225 233 203 218 223 193 162 190 259 237 291 208 213 186 192 185 184 186 189
238 234 231 232 231 227 226 225 221 219 218 218 223 218 212 219 218 213 207 202 200 202 201 200 189 231 254 221 223 211 234 218 216 214 235 233 254 256 227 220 223 220 209 201 202
240 236 232 230 232 231 227 224 222 225 220 216 220 224 231 226 216 216 207 205 204 204 210 203 217 224 240 227 207 269 206 264 240 196 260 261 261 267 255 232 229 231 229 215 212
238 237 234 230 229 226 227 224 232 242 228 205 234 205 184 201 215 215 208 199 199 207 210 219 220 226 221 234 252 212 243 258 273 269 282 278 272 266 255 249 238 231 229 230 216
242 236 233 230 229 222 220 214 217 219 234 225 221 202 201 223 218 206 204 196 202 211 212 217 223 230 207 223 216 230 241 276 264 267 273 282 280 267 259 254 251 243 233 229 223
245 240 235 228 226 224 219 220 220 229 243 248 231 220 225 225 211 207 201 197 212 210 213 220 226 221 203 219 230 230 243 253 287 271 278 277 291 243 258 253 248 248 238 236 227
245 240 234 228 224 220 219 217 217 221 242 231 228 228 214 214 220 215 208 203 212 215 216 226 219 216 224 231 225 235 230 251 264 276 286 274 299 275 204 227 253 258 251 240 230
245 239 232 223 218 212 214 208 201 181 259 172 191 203 201 204 231 207 209 200 210 218 216 225 222 221 230 226 223 226 251 243 256 269 270 272 252 279 210 226 187 285 271 251 231
243 239 232 222 213 212 203 194 179 194 243 193 208 206 194 203 202 208 203 201 213 221 225 225 230 227 224 216 215 226 274 255 249 252 260 234 254 306 90 288 289 303 313 254 226
240 236 235 221 212 199 192 178 187 226 199 211 210 197 196 201 197 199 197 201 203 212 221 220 222 227 220 221 225 227 242 245 225 240 224 211 234 266 258 323 302 290 310 294 219
241 236 233 222 207 195 186 178 223 227 221 221 203 199 200 198 203 207 201 205 208 211 218 212 215 217 213 214 213 226 231 250 261 229 112 245 266 165 295 292 338 325 296 296 253
244 236 228 219 205 196 185 199 211 225 223 218 207 203 207 205 204 206 209 209 211 206 222 210 227 222 217 210 212 220 219 245 280 241 258 319 327 271 194 153 37 1 327 286 283
248 238 228 217 205 196 196 211 215 228 202 206 214 211 205 205 205 207 208 216 214 212 209 233 225 206 212 215 222 235 238 231 234 273 281 266 264 204 179 145 339 339 338 306 272
241 234 228 215 203 199 208 213 213 239 225 219 225 237 221 208 214 216 216 221 215 212 209 218 222 213 209 215 221 218 237 247 236 260 288 256 137 255 317 132 346 327 323 318 291
222 209 239 213 204 209 217 211 217 236 230 218 220 217 229 223 214 219 217 217 219 210 208 211 226 225 215 224 226 230 223 231 245 237 255 281 241 211 182 7 5 338 332 298 275
186 246 227 209 204 217 225 221 217 225 224 215 223 221 222 222 220 217 220 210 216 201 205 206 221 239 224 214 222 227 231 234 234 245 253 225 258 268 29 337 349 345 341 323 306
210 208 228 220 201 225 226 220 219 223 215 214 214 220 215 215 210 212 212 201 204 203 205 209 217 224 234 223 209 219 236 238 252 263 257 256 278 260 278 302 306 334 339 351 308
200 201 224 230 220 219 209 225 219 220 219 213 221 216 214 215 208 215 206 196 205 203 201 204 220 227 232 251 233 236 225 232 239 248 257 260 270 253 290 269 304 314 332 343 334
180 223 232 207 226 221 217 218 222 220 215 216 218 216 208 214 209 219 207 205 203 205 207 209 222 227 236 240 241 245 243 239 234 241 253 266 272 271 253 282 295 284 304 321 323
222 223 226 223 222 218 219 224 219 217 218 219 221 214 217 213 225 202 194 209 208 199 196 205 217 221 235 241 245 238 237 234 239 239 245 249 259 274 275 276 279 281 291 301 305